Terminal Aerodrome Forecast
Issued by NWS

Home | Current Version | Previous Version | Text Only | Print | Product List | Glossary On
Versions: 1 2 3 4 5 6 7 8 9 10 11 12 13 14 15 16 17 18 19 20 21 22 23 24 25 26 27 28 29
000
FTUS41 KOKX 280830 AAA
TAFHPN
TAF AMD
KHPN 280830Z 2809/2906 VRB03KT 6SM BR SCT040 BKN250
      TEMPO 2811/2814 4SM BR BKN040
     FM281400 06012G17KT P6SM OVC025
     FM290300 06013G20KT P6SM -RA BKN015
      AMD NOT SKED=

USA.gov is the U.S. government's official web portal to all federal, state and local government web resources and services.